Wind_Gust
6 4 5 5 3 2 2 9 5 10 5 6 6 4 8 2 5 7 6 6 2 2 4 5 10 10 8 10 10 7 3 17 5 24 18 9 3 16 14 12 13 13 12 9 8 9 11 10 13 14 15 17 16 14 16 19 19 17 16 15 15 14 14 15 15 15 15 15 14 15 16 16 15 15 14 14 14 14 15 16 15 16 16 17 18 18 18 19 19 19 19 19 19 18 18 20 20
3 5 2 3 3 3 5 6 8 4 10 5 12 3 7 4 1 7 5 2 3 7 6 11 15 15 13 17 10 7 8 10 4 4 6 4 11 15 9 12 14 15 11 9 9 8 8 11 11 12 16 17 16 15 16 18 19 18 17 16 16 15 16 16 15 15 15 15 15 15 15 14 15 14 14 13 12 13 12 14 15 16 16 16 16 17 18 19 19 19 19 19 19 19 19 20 21
2 3 2 6 6 6 5 7 10 3 4 3 10 12 7 6 6 9 10 4 7 12 9 8 8 7 5 5 10 5 4 5 8 5 11 8 19 8 11 11 13 13 12 10 9 9 8 9 10 11 15 17 16 16 15 17 18 19 19 17 16 16 17 17 15 15 15 15 15 15 15 15 14 13 13 13 10 9 11 11 14 15 15 15 15 16 17 19 20 19 20 19 20 20 20 20 20
2 1 3 5 7 8 5 7 6 13 5 11 5 4 3 2 5 6 5 7 10 3 7 8 11 5 6 13 7 4 8 7 3 10 22 16 9 12 14 14 14 13 10 9 10 7 6 8 11 10 13 16 16 17 15 15 15 18 18 17 16 16 16 15 15 15 15 15 15 14 15 14 13 13 14 14 13 10 7 11 12 14 14 14 15 15 17 19 20 19 20 20 21 21 20 20 20
1 2 3 7 10 5 6 6 7 6 6 12 5 5 3 2 5 9 8 3 2 5 5 8 15 8 4 12 4 9 7 6 7 3 17 7 12 13 14 15 15 15 12 9 8 7 6 8 12 10 10 15 16 16 16 16 15 15 16 17 16 15 15 15 15 15 15 15 15 14 14 14 13 15 13 17 15 14 10 13 12 9 12 14 13 13 14 16 19 19 19 21 21 21 20 19 19
3 3 4 4 6 7 12 5 4 5 12 8 5 6 1 2 6 2 3 3 4 3 4 4 11 9 9 6 4 9 8 10 9 6 12 10 16 16 14 16 16 15 12 9 7 7 5 8 6 9 8 12 15 16 16 16 15 14 14 15 15 15 15 15 14 15 14 14 14 14 14 14 14 14 15 17 18 17 16 16 14 13 14 12 12 13 14 15 18 18 19 20 21 20 19 19 19
5 6 10 7 5 11 10 6 5 6 12 11 8 5 2 5 3 3 4 3 6 5 8 5 10 11 14 7 9 8 3 7 11 9 5 13 15 14 14 14 16 15 12 10 9 8 8 8 6 6 6 9 14 15 16 14 14 15 13 14 14 15 14 15 14 14 14 14 13 13 14 13 13 13 14 16 16 15 15 16 17 15 15 11 10 12 13 15 17 18 19 21 20 21 19 18 16
4 5 4 6 7 5 4 3 5 10 6 10 6 3 2 2 1 4 3 4 5 5 4 7 4 12 4 4 9 5 8 4 8 10 15 14 14 13 13 13 16 14 13 11 9 5 10 9 9 7 9 8 9 13 18 18 17 11 11 10 14 14 13 13 13 13 12 13 13 13 13 13 13 13 13 13 14 15 14 13 16 15 15 14 10 12 13 14 17 18 19 20 20 19 17 16 15
5 10 2 9 5 7 4 5 8 5 11 7 16 9 8 5 4 4 4 5 2 1 10 8 3 14 10 6 7 4 6 7 11 14 14 14 13 13 13 12 15 15 13 13 9 9 7 9 9 7 9 9 9 14 15 18 16 17 15 9 9 10 11 11 11 13 11 11 11 12 13 13 13 13 13 15 16 18 16 14 13 15 15 12 11 12 14 13 16 17 17 18 20 19 17 15 13
4 5 5 9 8 5 5 12 3 7 8 9 12 14 7 8 7 7 7 3 6 9 5 4 3 7 10 13 9 2 7 9 14 13 12 12 12 11 12 12 13 15 13 12 11 8 6 14 10 8 7 8 9 12 14 18 18 21 18 11 7 8 10 10 10 11 11 11 10 10 11 11 11 11 14 16 17 18 16 16 16 17 16 13 10 9 13 15 13 15 15 17 19 19 17 15 13
5 11 6 8 4 5 8 10 6 9 5 7 14 17 16 9 8 8 9 5 7 16 2 7 8 14 10 6 5 4 11 15 18 18 14 12 12 12 12 12 12 12 13 13 10 9 9 8 16 11 10 12 12 12 13 14 15 18 20 15 12 11 11 10 10 11 10 10 10 10 10 11 11 12 13 15 17 16 16 16 16 17 17 15 11 10 11 15 14 13 13 14 16 18 17 14 13
4 3 6 6 7 10 8 6 6 12 9 4 10 10 3 7 7 6 6 8 9 8 11 6 20 12 10 7 6 11 13 14 14 16 15 12 11 11 12 12 12 12 11 12 12 10 10 8 6 13 13 11 11 12 11 13 15 17 18 19 15 11 10 10 10 11 10 10 10 9 9 10 11 11 11 12 14 15 16 16 16 17 17 16 14 12 9 12 15 14 13 12 12 15 17 16 14
7 4 7 7 7 2 3 2 9 4 9 9 7 7 3 6 9 12 11 15 12 13 8 8 17 5 9 5 6 11 16 13 13 16 15 14 15 13 12 13 13 13 14 13 13 11 10 9 8 5 9 13 11 10 11 12 15 15 15 14 13 12 12 12 11 11 11 10 10 10 9 9 10 11 11 11 12 13 13 14 15 16 15 16 15 13 11 9 14 16 14 11 10 12 16 16 14
10 12 11 9 2 3 3 5 2 3 10 10 6 5 3 6 10 12 13 11 10 17 7 14 15 10 10 11 9 14 14 14 16 14 16 14 14 14 14 16 13 14 14 11 11 11 10 7 7 7 8 6 6 10 11 12 13 14 12 12 12 11 10 11 10 10 10 10 11 10 10 10 11 12 12 11 11 12 12 13 14 15 15 15 15 13 10 8 11 15 16 13 10 10 14 16 15
2 5 8 6 4 2 6 5 3 1 11 4 10 5 8 9 2 7 20 14 7 3 12 11 14 7 16 17 14 18 15 16 15 15 13 14 15 14 16 15 13 12 14 12 9 11 9 6 6 6 7 7 7 6 5 9 12 13 12 12 11 11 11 11 11 11 12 11 11 11 12 13 13 13 12 12 12 12 13 12 13 13 14 14 14 13 11 8 8 13 16 15 11 10 10 16 14
7 10 6 4 4 3 9 4 2 1 16 3 11 9 3 4 3 14 8 14 15 5 11 17 4 7 7 15 8 19 17 14 13 13 15 14 14 13 16 14 13 13 11 11 8 7 6 6 4 6 6 6 5 5 6 5 10 13 13 11 11 11 11 10 10 11 12 13 14 13 12 11 11 11 15 13 14 12 12 9 13 13 14 14 13 12 11 8 6 10 14 15 13 10 8 12 15
4 9 3 6 5 4 7 6 4 7 13 11 9 10 3 5 2 5 2 8 26 11 5 5 6 3 14 8 14 19 15 14 13 14 14 15 17 14 12 12 13 12 11 9 9 6 4 5 4 6 5 7 7 6 5 5 7 11 10 12 12 11 11 12 11 11 11 11 10 10 9 7 6 4 6 7 12 10 10 12 14 15 14 14 14 13 11 9 7 7 12 13 14 12 8 8 14
3 4 9 3 8 4 9 9 12 3 7 13 15 6 5 3 6 7 14 13 12 7 9 4 10 9 10 8 18 20 16 15 14 16 14 15 12 12 14 14 17 15 12 10 5 5 5 4 4 4 5 5 6 6 6 5 7 8 5 4 7 9 8 8 5 3 8 4 11 8 7 8 8 6 6 6 7 11 10 14 15 14 14 15 15 14 14 11 9 7 9 12 11 11 11 8 7
6 5 6 11 8 13 9 8 7 4 10 10 9 6 3 4 3 8 17 8 9 12 6 6 12 11 15 17 18 20 17 15 14 13 12 11 9 10 11 12 12 13 13 9 8 5 5 4 3 4 5 4 6 5 6 6 7 7 6 5 6 8 6 7 6 7 8 7 5 7 5 6 7 6 8 9 8 12 11 14 13 15 14 15 15 14 13 12 10 8 7 9 9 11 11 7 5
6 8 7 12 10 8 8 5 7 7 6 13 12 9 8 3 4 4 12 11 6 15 18 5 11 13 16 16 18 19 18 16 14 13 15 11 10 10 9 10 10 10 10 10 10 4 4 5 4 4 5 4 6 6 6 5 6 6 5 5 6 6 3 8 8 8 7 8 6 6 5 4 6 6 10 13 14 9 9 13 14 14 14 14 15 11 11 10 10 8 7 10 9 6 7 8 6
6 5 11 10 7 5 9 9 11 12 6 9 7 6 4 2 2 7 14 15 3 5 11 23 20 22 20 20 19 19 19 16 15 15 15 13 10 7 8 8 10 10 9 8 8 6 4 4 3 4 6 6 5 5 5 6 5 4 4 4 6 6 6 9 7 10 7 6 5 6 5 6 4 4 2 3 7 6 4 3 7 7 6 6 10 6 6 6 5 3 2 8 7 7 6 6 6
6 10 7 9 2 5 13 5 7 6 7 7 5 2 4 1 4 11 20 18 16 21 19 6 24 26 27 23 20 18 18 17 16 15 16 16 16 12 7 5 4 6 8 9 8 4 4 3 3 1 5 6 6 7 6 5 7 5 6 4 4 5 6 5 11 12 8 4 5 3 4 3 5 5 5 4 5 6 6 4 4 4 4 5 7 7 6 6 5 4 5 6 7 7 7 7 5
9 8 5 9 8 8 8 3 6 2 7 3 3 3 5 3 4 7 3 12 8 6 3 14 22 29 30 28 25 20 18 18 16 15 15 13 12 10 10 8 11 11 9 8 5 4 3 3 3 2 3 4 6 7 6 6 6 4 3 5 5 5 6 6 6 9 11 7 4 5 5 4 5 5 6 5 4 4 4 1 6 6 6 6 6 8 7 6 6 6 5 6 6 7 7 7 6
4 12 3 8 6 11 11 10 6 4 2 11 7 7 4 7 5 8 5 6 6 7 8 9 9 15 21 25 21 25 21 19 16 12 11 14 14 14 11 11 6 5 8 5 5 5 5 4 3 4 3 5 4 5 6 6 5 5 5 4 5 7 7 6 7 8 12 12 11 7 6 5 6 6 7 6 5 4 8 8 7 8 8 7 7 10 9 6 6 5 4 4 5 5 6 6 6
6 10 4 7 3 9 10 10 9 6 9 9 4 7 2 8 9 7 8 5 5 5 14 13 15 15 13 17 18 15 15 12 12 8 5 5 6 7 4 5 6 8 10 6 6 6 4 5 3 4 4 5 5 6 7 6 6 6 4 4 5 6 6 6 6 10 13 12 10 8 8 10 9 8 7 8 8 7 7 8 9 11 10 8 8 8 8 8 6 6 6 4 2 3 3 4 5
9 12 4 7 10 8 10 11 10 6 7 4 2 2 4 3 3 10 6 5 3 12 16 16 17 17 18 17 17 18 16 14 11 11 11 7 7 10 5 9 9 10 10 8 8 6 4 3 6 6 6 7 7 6 6 6 4 5 5 5 6 5 6 6 7 8 8 11 10 9 10 9 10 10 10 9 9 10 8 8 7 9 11 8 7 9 7 8 7 6 5 5 5 2 2 3 4
5 4 6 10 15 8 8 7 7 3 7 4 8 2 5 3 6 9 2 3 10 15 16 15 19 20 16 14 12 10 16 16 16 12 10 7 7 12 11 9 10 10 10 9 8 8 6 5 5 5 6 7 6 7 5 6 4 5 5 4 2 5 6 5 5 7 7 7 7 9 9 9 8 8 10 11 9 9 9 9 8 7 10 9 7 8 8 7 7 8 8 8 6 5 5 4 4
4 8 7 9 9 6 7 4 6 3 5 5 7 4 4 5 3 8 3 7 12 19 15 15 14 16 16 13 14 8 11 10 11 14 18 16 18 17 15 16 12 11 13 11 9 6 6 6 7 5 7 7 8 6 6 6 5 4 5 5 4 6 8 9 7 5 7 5 6 6 7 8 8 6 7 9 9 8 8 10 9 11 9 9 8 7 9 7 8 7 6 5 4 4 4 3 3
4 1 6 10 9 5 5 4 4 3 7 6 3 3 4 4 4 5 3 6 8 17 16 15 15 12 12 14 12 11 13 11 10 13 16 16 14 14 18 12 19 15 7 12 11 8 9 7 9 6 7 6 8 7 7 5 5 5 6 6 5 6 5 7 8 6 5 4 4 4 6 8 9 7 5 7 8 9 8 6 7 9 10 7 6 6 6 7 5 6 5 3 3 2 1 2 2
3 4 4 8 9 8 6 5 6 1 5 5 3 10 11 12 7 5 1 9 10 11 11 13 13 13 13 14 15 11 7 9 13 14 15 15 15 14 18 12 12 17 14 9 9 10 8 6 7 8 8 10 8 7 6 7 5 5 4 4 5 5 4 6 6 5 5 5 4 4 4 7 13 8 7 6 4 9 10 7 7 7 5 6 11 5 7 7 7 6 7 7 6 5 2 3 3
8 7 10 3 3 5 10 4 8 3 5 6 3 7 14 13 8 6 1 8 17 15 11 10 11 12 15 14 13 13 9 10 12 10 11 10 12 10 13 13 10 11 13 10 13 12 9 10 10 10 9 9 8 7 7 6 4 5 6 5 5 6 4 6 4 4 5 7 6 5 5 5 7 9 8 6 6 6 7 9 8 6 8 6 6 8 6 6 6 7 5 4 2 2 2 3 4
6 6 5 10 4 8 13 6 4 7 7 7 6 4 14 11 8 4 4 8 8 15 13 12 12 13 15 14 12 10 9 6 7 8 10 11 13 15 16 17 12 12 17 15 11 10 11 8 7 10 7 8 7 7 6 6 5 4 6 7 6 5 7 5 3 5 4 4 6 5 3 5 9 6 6 6 5 5 4 8 6 7 11 11 10 12 10 8 8 9 8 7 6 6 5 5 5
10 5 4 1 3 3 6 3 5 4 5 4 4 15 8 10 6 6 3 9 9 11 11 12 12 12 14 13 11 8 9 7 9 11 12 12 12 14 15 16 18 16 15 15 15 12 11 8 9 12 11 10 8 7 7 6 6 6 5 6 5 5 7 7 4 4 7 7 6 6 4 6 4 4 4 7 6 6 6 9 8 3 5 11 11 9 11 9 9 8 6 6 5 10 5 4 5
8 5 4 3 2 4 5 13 2 5 2 5 2 7 10 7 11 8 2 3 6 8 11 10 11 12 13 11 10 11 12 13 19 19 17 13 14 12 12 15 15 12 11 14 15 18 17 12 10 11 10 9 10 9 7 7 7 7 7 7 6 8 6 6 6 6 7 7 6 7 6 7 7 6 6 8 10 8 11 9 8 6 4 5 9 8 10 10 8 9 9 6 7 7 5 4 5
3 3 5 5 2 2 3 5 7 10 5 6 3 4 15 10 9 7 5 2 7 11 14 13 11 8 9 12 12 11 14 17 22 20 15 13 11 9 9 9 9 8 10 11 10 6 10 10 10 10 12 10 10 10 7 8 8 8 7 8 9 7 7 7 5 8 6 7 7 5 7 8 7 7 8 8 8 7 6 7 6 6 6 5 7 6 9 7 9 8 7 7 6 6 3 3 3
6 9 5 4 4 2 5 6 6 3 3 2 1 9 11 9 7 6 4 2 8 14 6 3 4 5 5 6 8 12 15 21 17 8 9 9 9 11 9 7 6 7 9 10 8 8 10 9 8 9 10 11 10 9 9 9 8 8 10 7 11 7 6 8 8 7 6 8 6 6 7 7 6 8 8 7 7 6 7 6 7 6 5 5 6 8 8 8 6 7 10 6 6 7 5 5 6
6 7 7 3 2 7 7 6 6 2 4 1 2 5 6 9 9 10 6 5 5 8 10 9 7 9 11 10 12 13 15 19 5 7 9 10 10 8 6 6 7 6 7 9 11 10 13 16 14 13 10 12 14 12 10 11 8 6 5 6 8 2 5 5 8 6 8 6 6 6 6 7 6 7 6 7 8 7 8 7 6 4 6 6 7 6 6 9 8 7 5 5 4 3 4 5 5
5 8 4 2 3 2 3 3 4 9 3 2 2 2 6 10 10 10 7 11 9 11 9 9 9 11 12 13 13 15 12 3 6 6 8 7 6 6 6 8 9 15 11 9 12 14 12 10 13 14 12 12 13 13 12 9 6 9 9 8 6 4 5 7 6 6 5 7 6 6 5 5 6 6 6 6 6 7 8 9 8 6 4 5 5 7 4 4 5 7 4 3 2 4 5 5 5
3 4 4 3 6 8 13 4 6 5 2 7 3 4 8 9 9 11 6 6 5 10 15 12 17 13 15 15 13 10 9 11 7 9 7 11 9 9 9 8 8 8 13 13 12 11 10 11 11 12 13 14 11 11 11 9 4 4 6 7 9 7 3 2 4 3 5 7 6 5 5 5 5 6 6 6 7 6 7 9 8 7 8 6 8 8 7 8 6 6 6 5 5 4 4 4 7
7 4 2 6 6 4 11 8 6 9 8 5 2 3 14 13 8 11 8 5 9 4 6 6 12 17 17 18 18 16 13 12 15 19 21 13 11 11 9 11 11 8 10 9 11 13 12 13 11 12 13 10 10 8 9 6 8 6 7 8 4 6 6 6 6 5 6 7 7 5 7 6 6 7 6 6 7 8 8 8 7 10 10 8 8 11 10 10 8 9 9 5 7 5 3 5 4
3 2 3 2 2 4 9 8 8 4 2 4 4 9 16 8 9 13 5 4 5 5 3 4 7 8 10 9 7 16 21 19 18 14 10 12 13 19 20 12 11 13 15 17 16 16 13 14 14 15 14 12 10 9 9 10 11 9 9 7 7 10 8 7 7 6 5 4 5 6 4 5 5 6 6 7 7 8 7 8 9 9 10 9 8 10 9 8 8 8 7 8 9 9 9 6 5
7 8 8 7 3 2 2 4 7 15 9 8 4 11 14 11 11 11 14 12 9 6 9 6 8 8 6 9 16 14 16 17 21 22 25 27 25 13 8 13 16 14 17 17 10 10 11 12 10 11 10 9 11 7 9 11 11 13 10 9 7 5 6 8 6 9 5 6 6 1 3 6 4 5 6 7 7 7 10 9 9 11 10 10 11 9 8 10 12 11 11 9 8 7 5 11 9
3 13 10 6 6 4 3 2 4 4 7 6 3 7 18 13 7 7 9 9 13 13 4 13 6 9 9 15 14 15 18 17 14 12 11 13 13 13 15 17 20 19 17 9 10 12 10 11 11 13 14 12 10 8 8 11 10 11 13 14 12 13 13 7 3 4 10 4 3 4 3 4 4 7 6 6 8 8 9 10 10 10 10 10 9 11 13 11 9 9 9 11 10 8 7 9 9
10 4 10 9 8 4 5 5 7 7 4 5 8 8 8 14 14 10 6 7 11 14 15 13 13 6 13 11 13 16 21 21 23 22 21 22 21 23 25 26 22 24 13 11 11 12 13 13 13 13 12 13 10 10 9 11 13 10 9 8 9 10 12 11 8 7 4 7 7 4 4 4 4 5 7 7 7 8 9 10 10 11 12 10 11 12 11 9 10 11 11 9 11 12 11 10 8
10 4 10 9 7 6 7 7 6 2 1 11 10 3 7 9 17 6 5 7 9 11 13 14 15 16 8 8 14 16 18 21 22 21 21 21 23 25 24 22 19 11 15 18 20 16 11 12 12 10 11 12 11 10 11 10 12 13 12 11 9 7 6 6 7 7 8 6 8 4 5 5 6 5 6 7 7 8 9 9 9 10 11 10 9 11 10 11 12 12 14 15 13 13 12 9 10
5 9 9 11 11 10 6 7 7 3 6 9 6 3 10 13 14 15 5 2 9 13 14 13 11 13 16 18 13 15 16 15 18 23 24 24 26 27 24 13 8 11 10 8 7 8 11 10 11 11 11 12 12 11 11 10 9 11 11 10 11 8 4 4 6 8 7 6 8 5 5 7 7 7 6 6 8 8 9 9 10 10 9 9 10 10 10 12 11 12 11 11 11 12 11 11 11
7 7 10 9 14 7 7 11 7 8 4 13 9 3 5 10 10 8 4 5 7 10 13 11 12 10 14 13 14 15 15 17 19 22 22 20 11 8 8 15 13 9 10 11 11 11 8 11 12 14 15 12 11 12 11 13 11 10 13 12 11 11 7 9 9 6 6 5 8 5 6 7 6 7 7 5 6 7 7 8 9 8 8 9 10 10 10 10 10 10 10 10 11 11 10 10 10
4 4 5 8 3 12 6 9 9 6 11 10 6 5 2 4 10 7 13 9 6 8 11 16 16 15 14 9 10 12 13 15 15 14 14 9 11 11 11 11 15 13 11 14 13 12 13 13 13 14 11 12 12 12 12 12 12 11 9 12 13 12 14 13 13 13 11 10 9 9 4 6 6 7 6 7 5 5 8 7 6 7 9 9 10 9 9 9 9 10 10 10 10 9 9 10 9
10 8 11 5 9 11 9 6 9 10 14 3 3 3 4 10 15 7 14 10 10 7 7 10 12 14 12 10 12 8 7 8 13 12 11 10 14 17 19 15 12 16 20 18 19 18 15 14 15 17 16 14 15 13 14 12 12 13 14 13 10 12 13 14 14 13 11 12 11 9 8 9 7 8 7 8 5 6 8 8 7 9 8 8 8 9 8 8 10 10 10 10 9 10 9 10 11
8 8 9 8 6 6 7 9 6 10 11 6 3 3 8 11 9 4 8 11 8 8 9 8 9 12 12 11 10 10 7 5 6 10 11 11 10 13 15 18 20 19 17 18 17 18 18 18 15 17 18 15 13 13 14 14 14 14 13 13 12 12 12 12 13 15 13 11 12 13 13 12 12 11 10 9 10 7 5 7 8 8 7 7 8 9 8 8 9 11 9 9 8 7 8 9 8
15 8 16 15 17 17 10 11 12 12 9 4 3 4 12 2 4 9 7 7 8 8 9 9 10 10 9 13 16 13 10 8 3 7 9 10 9 8 8 10 16 17 18 18 17 18 16 17 17 17 14 14 14 16 13 15 16 13 12 12 13 12 13 12 12 12 14 12 10 12 10 9 12 10 11 8 8 7 7 7 7 9 7 7 8 8 8 9 10 10 9 8 8 7 8 8 8
3 7 11 10 14 13 14 12 8 6 5 4 6 11 8 7 4 5 5 6 6 6 7 6 14 12 17 24 21 17 13 11 9 4 3 3 5 6 6 5 5 4 6 12 16 16 18 20 20 20 21 19 17 15 15 17 17 14 10 12 13 12 11 10 9 8 10 12 14 14 13 12 11 11 7 9 7 9 9 8 7 8 6 7 8 9 8 10 8 9 9 8 8 6 8 8 7
9 9 11 11 7 16 12 4 4 4 9 13 6 13 6 13 5 3 8 5 10 10 12 14 13 13 19 19 16 16 16 15 13 10 6 3 5 5 7 8 6 5 6 8 6 6 13 16 18 19 16 13 16 18 18 15 14 11 12 12 11 11 12 13 15 12 12 10 11 12 13 12 9 11 12 9 11 7 9 10 9 8 6 7 8 8 8 9 7 7 8 7 7 5 6 6 6
17 7 13 6 5 11 12 11 7 7 9 18 4 9 6 5 11 7 7 7 6 8 8 6 7 11 18 14 14 14 14 13 14 15 10 7 3 4 6 7 8 8 7 7 6 4 6 7 5 7 10 17 17 16 16 16 15 15 14 14 14 16 17 15 13 14 12 12 8 8 6 8 10 11 12 10 11 10 9 9 10 7 7 7 8 7 8 8 8 8 8 8 6 5 6 6 5
8 9 8 8 11 5 8 12 7 7 10 12 6 2 7 8 10 4 1 3 5 8 7 10 14 15 12 11 12 12 11 13 16 15 16 17 15 9 2 6 7 9 10 10 10 10 9 7 6 7 13 11 8 11 13 12 12 14 16 18 17 16 13 13 12 11 12 13 13 12 11 11 8 8 10 10 10 9 9 8 9 8 7 8 7 8 7 8 7 8 7 7 6 7 8 7 7
4 4 7 3 11 5 8 14 9 11 7 4 11 2 12 11 11 11 4 1 2 6 9 9 8 8 8 9 11 12 13 13 13 14 14 14 15 15 14 7 4 6 7 9 11 11 12 12 12 11 9 8 5 8 10 14 14 12 12 10 11 13 14 14 13 13 14 13 13 13 11 8 11 10 9 10 10 10 10 10 8 9 8 8 9 7 8 9 9 8 7 7 5 6 7 7 8
3 8 5 5 7 4 11 5 6 8 13 9 9 10 11 10 8 6 4 2 1 2 7 7 9 10 10 9 9 10 9 10 10 11 11 12 12 15 16 14 12 7 3 5 8 11 11 12 12 13 15 14 15 14 12 11 8 9 5 8 10 10 11 11 11 12 14 13 11 12 13 12 10 10 10 11 10 10 10 10 10 9 10 9 10 8 7 9 8 8 7 5 5 5 5 4 4
6 8 9 12 11 5 4 15 5 6 11 14 10 17 13 15 5 5 4 3 3 2 5 7 8 8 9 10 9 8 8 8 7 8 9 13 12 11 12 15 16 17 15 11 9 4 7 10 11 13 14 15 15 14 15 13 15 18 21 21 15 11 9 8 11 12 12 12 11 12 12 11 12 11 12 13 12 10 10 10 9 8 8 8 9 9 7 9 9 8 5 4 4 4 4 5 4
Wind_Speed
3 2 2 2 0 1 0 4 1 2 1 3 3 1 2 1 2 4 3 3 0 1 1 3 4 4 2 3 6 4 1 8 1 8 7 1 1 9 8 8 9 9 8 6 4 5 7 8 11 11 13 14 13 12 13 15 15 14 13 13 13 12 12 12 12 12 12 12 12 13 13 13 12 12 11 11 12 12 11 12 12 12 13 13 13 13 14 14 14 14 14 14 14 14 14 14 15
1 2 2 1 2 2 1 1 3 1 4 2 6 1 2 2 1 3 2 0 1 2 3 6 7 9 8 12 6 4 5 6 2 1 2 1 7 7 6 8 9 10 7 5 5 4 5 7 9 10 13 14 13 12 13 15 16 15 14 13 13 13 13 13 12 12 12 12 12 12 12 12 12 12 11 10 9 11 10 11 11 12 12 12 12 12 14 14 14 14 14 14 14 14 14 14 15
0 2 1 1 3 2 1 3 2 1 2 1 3 6 2 3 3 6 7 2 4 6 5 5 4 3 2 2 5 2 1 2 4 2 3 4 9 4 7 8 9 9 8 5 5 5 4 6 8 9 13 14 13 12 13 14 15 15 15 14 13 14 14 13 13 12 12 11 11 12 12 12 11 11 11 11 8 7 7 9 12 11 12 12 12 12 13 14 14 14 15 14 14 15 15 15 14
1 0 1 2 1 3 1 3 3 7 2 4 2 1 1 1 3 4 3 4 6 1 1 3 5 2 3 6 2 3 4 3 2 6 4 5 1 7 8 9 9 7 6 5 5 4 3 6 7 8 11 13 13 13 12 12 13 15 15 14 13 13 13 13 12 12 12 12 11 11 11 11 11 11 10 10 9 8 5 7 9 10 11 11 10 12 13 14 14 14 14 15 15 15 15 15 14
0 0 1 3 3 0 1 1 2 2 2 5 2 2 2 0 2 4 4 2 1 3 2 1 4 4 1 5 1 2 3 3 4 2 4 2 6 8 9 10 9 9 6 6 5 4 2 6 10 8 8 12 13 13 13 12 12 12 14 13 12 12 12 12 12 12 12 12 12 12 11 11 10 11 10 10 10 10 8 8 9 7 9 9 9 11 11 13 13 14 14 15 15 16 15 15 15
2 1 2 2 1 1 4 1 0 2 6 4 2 1 1 0 3 1 1 1 3 2 2 2 4 3 3 2 1 3 4 4 3 3 5 5 8 10 10 10 9 9 7 5 4 4 3 5 6 7 5 10 12 13 13 13 12 11 12 12 12 12 12 12 12 12 11 11 11 11 11 11 9 11 12 11 11 10 10 12 11 11 11 5 9 11 11 12 13 13 14 15 15 16 15 15 14
1 2 4 3 2 4 4 2 3 3 5 6 1 2 0 2 1 1 2 1 3 3 4 2 4 6 5 0 2 2 2 4 3 2 3 8 10 9 9 8 10 10 8 6 5 5 5 6 6 6 4 6 12 12 12 8 10 10 10 11 11 12 12 12 11 11 11 11 10 11 11 11 10 10 12 12 11 10 11 12 12 12 12 7 7 10 10 12 13 13 14 15 16 16 15 14 13
1 2 1 1 1 2 0 1 2 4 2 6 2 1 1 1 0 0 1 2 2 2 2 2 2 5 0 2 3 2 5 2 5 7 10 8 9 8 9 8 10 9 8 7 6 3 7 7 8 6 6 6 7 10 14 7 7 5 7 8 11 11 11 11 11 11 10 10 11 11 11 10 10 10 9 11 12 12 8 11 12 12 12 9 7 10 10 11 14 13 14 14 16 15 14 13 11
2 4 0 4 1 2 1 3 2 2 6 4 6 6 5 4 3 1 1 1 1 1 3 2 2 5 2 4 2 2 3 4 7 9 9 9 8 7 6 8 9 8 8 8 6 5 5 7 7 6 7 6 7 11 13 14 10 9 4 4 7 8 9 8 9 10 10 9 9 10 11 10 10 10 10 10 12 13 10 10 11 12 12 7 6 9 11 10 13 14 13 13 14 15 13 11 10
1 1 1 1 3 3 2 6 1 2 3 5 7 5 4 3 4 4 4 1 3 6 3 3 2 3 4 6 2 1 3 6 9 9 8 8 8 7 8 8 9 10 9 7 6 5 3 10 8 7 6 6 6 10 12 15 15 17 12 7 6 6 9 8 8 9 9 9 8 8 9 9 9 9 11 11 13 12 11 11 12 13 13 8 6 8 11 12 11 12 12 12 13 15 13 11 10
0 4 2 3 1 1 3 5 2 5 3 3 9 9 10 5 5 3 6 2 4 8 0 3 4 6 4 3 0 2 7 9 10 11 9 7 7 8 8 7 7 8 8 9 6 5 5 5 12 9 8 8 9 10 11 12 13 15 15 11 10 9 9 8 9 9 9 9 8 8 8 8 9 9 11 12 12 12 12 12 11 12 12 11 8 7 9 12 11 10 11 11 11 12 13 11 10
1 0 1 2 2 4 4 2 3 7 6 2 4 7 1 4 4 2 3 4 4 5 6 4 5 4 5 1 1 6 9 9 8 9 10 8 7 7 8 6 8 8 8 8 8 6 6 5 4 9 10 9 9 10 9 11 13 14 13 12 10 9 8 8 8 8 8 8 8 8 8 8 9 9 9 10 11 11 11 12 13 13 11 10 9 8 8 10 12 12 10 9 9 10 12 12 10
2 1 4 3 2 1 1 0 3 2 4 4 4 2 1 3 6 8 7 8 8 8 3 5 9 2 3 1 1 6 10 9 8 10 10 8 8 7 7 7 7 8 9 8 8 7 7 6 5 3 6 11 10 9 9 10 12 12 11 11 9 8 9 9 8 8 8 8 8 8 7 8 9 9 9 9 10 10 10 11 12 13 12 11 10 7 6 8 11 13 11 9 8 8 11 12 11
3 5 5 3 1 1 1 2 1 1 4 3 2 2 1 1 4 7 7 7 7 11 3 10 7 5 3 4 3 7 7 9 10 10 9 9 8 8 9 7 7 8 9 8 7 7 7 5 4 4 5 4 4 7 9 10 11 11 10 9 8 8 8 8 8 8 8 8 9 8 8 8 9 10 10 9 9 10 9 10 10 12 12 11 10 8 5 5 9 12 13 10 8 7 9 12 12
0 2 3 2 1 1 2 1 2 0 5 2 3 1 3 5 1 3 12 9 4 1 5 7 4 3 6 9 5 8 8 11 10 10 8 9 10 9 10 8 7 8 7 7 6 7 6 4 4 4 4 4 4 4 3 6 10 11 8 10 9 8 7 8 8 8 9 8 9 10 9 10 11 11 10 10 10 10 11 10 10 10 11 11 11 9 6 4 6 10 12 12 9 7 7 10 11
3 4 2 1 1 1 3 2 0 0 7 1 5 5 3 2 1 6 3 5 4 2 7 5 1 1 3 9 3 12 11 9 8 9 9 10 9 9 9 9 7 7 6 6 5 5 4 4 3 3 3 4 3 3 4 3 7 11 10 8 10 9 7 7 8 8 10 11 11 10 10 7 8 8 12 9 11 10 10 7 10 10 11 11 10 10 8 5 5 7 11 13 11 8 6 6 10
2 3 0 3 2 2 2 2 3 2 6 5 5 6 1 2 2 2 0 5 16 5 3 1 1 1 7 2 9 13 11 9 9 10 10 9 7 7 6 6 6 6 5 5 5 3 3 3 3 4 3 4 4 4 3 3 4 8 8 10 9 9 9 7 7 8 7 8 7 7 7 5 4 3 5 5 9 6 7 10 11 12 11 11 11 10 9 6 4 6 9 10 11 9 7 5 6
1 1 4 1 3 2 4 4 6 1 2 7 9 4 2 2 2 2 8 8 7 4 6 2 6 5 5 4 12 13 11 10 10 12 10 9 7 7 8 8 8 8 6 5 3 2 3 2 3 3 3 4 4 3 2 3 4 5 3 3 4 5 6 6 3 1 4 1 8 6 4 5 5 4 4 4 4 6 7 11 12 11 11 11 11 11 10 9 6 5 7 9 9 9 9 4 3
2 2 2 6 3 6 5 4 5 0 5 6 5 4 2 0 1 1 7 4 6 7 3 3 7 7 10 11 12 14 12 9 9 9 8 7 5 7 6 6 7 8 7 5 4 3 2 2 2 3 3 3 4 3 3 3 4 4 3 3 3 5 4 4 4 4 3 2 1 4 3 4 4 4 5 5 6 8 7 11 10 11 11 11 12 11 10 8 7 5 6 7 8 8 6 4 2
2 3 3 6 6 4 5 3 5 5 4 9 8 5 1 2 0 1 5 7 4 9 8 3 5 8 11 10 12 12 11 10 10 9 9 8 7 6 5 5 5 6 7 5 5 2 2 3 3 2 3 3 4 3 3 3 3 3 3 3 3 3 2 5 4 5 3 2 3 3 3 3 2 4 6 10 8 6 6 10 12 11 10 10 11 8 8 7 6 5 3 7 7 3 3 4 3
1 1 4 3 3 1 4 6 8 8 4 5 5 3 1 1 0 2 8 9 0 2 6 14 13 13 12 13 12 12 11 11 10 11 10 9 6 4 5 5 4 4 4 4 4 4 3 3 2 3 4 3 4 3 3 3 3 2 2 2 3 3 4 4 4 5 3 2 2 3 3 3 1 1 1 1 3 4 2 1 3 4 4 4 7 3 4 3 2 2 1 5 4 4 3 3 2
3 6 4 5 1 2 7 3 6 4 4 4 4 0 2 0 2 7 12 9 8 10 12 3 13 17 17 15 13 11 12 12 11 9 10 11 11 8 5 3 2 2 4 4 4 3 3 2 1 1 3 4 3 3 3 2 4 2 3 2 2 3 4 3 4 4 3 3 2 2 2 1 2 1 3 3 2 2 3 3 2 2 3 3 3 4 3 3 2 2 3 3 3 3 3 3 3
3 3 3 5 5 4 3 1 4 1 3 2 2 2 2 2 2 4 2 5 1 3 1 6 14 19 18 17 15 13 12 12 11 10 10 9 8 7 7 5 7 6 5 4 3 3 2 1 1 1 2 3 4 4 3 3 3 3 2 2 3 3 3 3 3 5 3 3 3 1 2 2 2 2 3 3 2 2 2 1 4 3 4 4 4 4 4 3 3 3 2 2 3 4 4 4 4
2 4 1 5 3 6 7 5 4 3 2 6 3 5 2 5 2 2 2 3 4 4 5 6 5 7 13 15 14 16 14 13 11 8 8 10 10 10 7 7 4 3 4 4 3 3 3 3 2 3 2 3 2 3 4 3 2 3 3 2 3 4 4 4 3 5 5 3 3 4 3 3 3 3 3 3 3 3 5 5 4 4 4 3 3 5 5 3 3 3 2 2 3 3 3 4 3
3 3 3 4 1 6 6 6 6 4 7 6 3 4 1 4 3 4 5 4 3 3 9 9 9 9 7 11 12 10 10 8 8 5 4 3 4 4 3 4 4 4 5 4 4 4 3 3 2 3 3 3 3 3 4 2 3 3 2 2 2 3 3 3 3 6 7 4 3 3 3 4 3 3 3 4 4 4 2 4 3 4 5 4 4 4 4 4 4 3 3 3 1 2 2 3 3
4 6 1 4 6 6 7 8 7 4 3 3 1 2 2 2 1 5 3 2 1 8 11 11 12 11 11 10 10 12 11 9 7 7 7 4 5 6 4 5 6 6 6 5 5 4 3 2 4 4 3 4 4 4 3 4 3 3 2 3 2 3 3 2 4 5 5 6 5 5 5 5 6 6 5 5 5 4 4 3 3 5 6 4 4 5 4 4 4 3 3 3 3 2 1 2 3
3 3 4 6 9 5 5 4 3 1 4 3 4 1 2 2 2 3 0 1 6 10 11 10 13 13 11 9 7 6 10 10 10 7 6 5 5 8 7 6 6 6 6 6 5 5 3 4 4 3 4 4 4 4 3 3 3 3 2 3 1 3 3 2 0 3 4 4 5 6 6 5 5 4 5 5 4 4 5 4 4 3 4 4 4 4 4 4 4 4 5 4 4 3 3 2 2
3 4 4 6 6 4 5 3 4 1 2 4 5 3 1 2 1 2 1 4 8 13 10 10 10 11 10 8 8 5 6 5 6 9 12 11 10 9 9 9 7 7 8 7 6 4 4 4 4 4 4 4 5 4 3 3 2 3 3 3 2 3 4 2 1 1 3 3 3 3 4 4 4 4 4 6 5 4 4 4 3 4 2 5 4 4 4 4 4 4 4 3 3 3 2 2 2
2 0 3 6 6 2 4 1 3 0 1 1 2 1 2 1 2 3 2 2 5 11 11 10 10 8 7 8 7 7 8 7 6 7 10 9 7 7 11 8 11 9 5 8 7 5 6 5 5 4 5 4 5 5 4 3 3 3 3 3 3 3 3 4 3 2 2 2 1 2 3 4 3 0 3 4 5 4 4 3 3 5 6 4 3 3 3 4 3 3 3 2 2 1 0 1 0
1 3 1 5 5 4 4 2 2 0 1 2 1 3 5 6 4 2 0 6 7 8 6 7 7 7 8 8 8 6 5 6 8 8 8 8 8 8 10 7 8 10 8 5 5 6 4 3 4 5 5 6 5 5 4 4 3 3 2 3 3 3 3 4 3 3 2 2 1 1 2 4 5 4 4 3 2 4 4 2 1 2 1 3 4 1 4 4 4 3 2 3 3 2 2 2 2
2 3 5 0 2 1 5 2 5 1 2 4 2 2 7 6 5 2 1 6 12 10 7 6 6 7 9 8 8 7 6 6 7 5 7 6 7 6 7 8 7 6 7 6 8 8 5 5 4 5 4 4 4 4 4 3 2 3 4 3 3 4 3 4 3 2 3 3 2 0 2 2 4 5 5 3 3 3 4 4 4 3 3 3 3 3 3 3 4 4 3 2 2 1 1 2 2
2 3 2 4 2 2 8 2 3 0 3 6 2 1 7 6 5 3 3 5 6 10 9 8 8 8 10 8 7 6 6 4 5 5 7 7 7 8 9 11 7 7 10 9 6 6 7 5 5 6 5 6 4 4 3 3 3 3 3 3 4 3 4 4 3 3 3 3 3 3 2 2 3 3 3 3 3 2 2 3 3 4 7 5 5 4 4 4 4 5 4 4 3 3 3 2 2
5 3 1 1 2 2 3 2 4 3 1 3 2 6 4 4 3 3 1 5 6 7 7 8 8 8 9 8 7 5 4 5 5 7 8 7 7 7 8 9 10 10 9 9 9 6 6 5 6 8 7 7 6 5 5 4 3 3 3 3 3 3 4 4 3 3 4 4 3 4 3 4 3 2 2 2 3 1 3 2 3 1 0 3 2 4 5 5 5 4 3 3 2 4 2 1 2
2 2 2 1 1 1 1 7 1 4 0 2 1 1 6 3 7 5 1 0 4 5 6 6 7 8 8 7 6 7 7 7 11 12 11 8 8 7 7 8 8 7 6 8 9 10 9 6 6 7 6 6 6 6 5 4 4 4 4 4 3 5 4 4 4 4 5 4 4 4 4 4 4 4 4 5 3 2 4 4 1 1 1 2 2 4 5 6 4 4 5 1 2 3 2 2 2
1 0 1 2 1 1 2 1 2 5 3 2 2 2 10 5 6 4 3 1 5 7 8 8 7 5 4 6 7 7 8 10 13 12 9 8 7 6 5 6 6 5 5 6 6 4 5 5 5 6 7 7 6 6 5 5 5 5 4 5 6 5 5 4 3 5 4 5 4 3 4 5 4 5 5 5 4 3 3 2 3 3 2 2 3 1 3 1 3 4 4 4 4 3 2 2 1
3 5 3 2 2 0 2 2 2 2 1 1 0 3 6 5 3 3 2 2 5 8 2 2 3 4 4 4 5 6 8 12 8 3 5 6 6 7 6 4 4 4 5 5 5 6 5 4 4 6 7 7 6 6 6 5 5 4 5 4 6 4 4 5 5 4 4 5 4 4 4 4 4 5 5 4 4 4 4 3 4 3 1 3 2 2 2 2 2 4 6 3 3 3 3 3 3
4 4 4 2 1 3 3 3 3 1 1 0 0 3 4 5 5 5 3 2 1 4 5 5 5 5 5 5 8 8 9 9 2 4 5 7 6 5 4 4 4 4 5 5 6 6 7 9 8 8 6 7 8 7 6 6 4 3 3 3 5 2 3 4 5 4 5 4 4 4 4 4 4 5 4 4 5 4 5 4 3 1 2 1 1 1 2 4 3 4 3 3 2 1 2 3 2
3 5 3 1 2 0 1 1 2 5 1 1 0 1 4 7 6 4 3 1 5 6 6 6 6 7 6 7 8 9 6 0 3 4 5 5 4 4 4 5 6 9 6 5 8 9 7 6 8 8 7 7 8 8 7 5 3 4 5 4 3 2 3 5 4 4 3 4 4 4 3 3 4 4 4 4 4 5 5 5 5 3 2 2 2 1 2 1 1 1 0 1 1 1 2 3 3
2 2 3 1 2 4 8 2 3 3 0 4 2 3 5 6 5 7 2 4 3 6 9 8 11 9 9 10 8 7 6 7 5 5 4 7 6 6 5 5 5 6 8 8 7 7 7 7 6 7 7 8 7 7 7 5 2 2 3 3 5 3 1 1 3 2 3 5 4 3 3 3 4 4 4 4 4 4 5 5 5 4 5 3 5 5 4 5 3 1 1 1 1 2 1 2 3
4 3 0 3 2 2 4 2 3 5 3 2 1 2 7 8 5 7 4 3 2 3 4 5 6 11 11 12 12 10 9 7 9 11 12 8 7 7 5 7 7 5 6 6 6 8 7 7 6 7 7 6 7 5 5 4 5 4 4 5 3 3 3 3 4 3 4 4 4 3 4 4 4 4 4 4 4 5 5 5 5 6 6 5 5 6 6 6 5 5 4 2 2 2 1 2 2
1 1 1 1 0 1 5 3 4 2 1 2 2 4 7 4 4 5 1 3 2 1 1 3 3 5 4 1 3 10 14 13 11 8 6 8 9 12 12 7 7 8 9 10 9 8 6 8 7 8 8 7 6 5 6 6 6 6 5 5 4 6 5 4 4 4 3 3 3 4 3 3 4 4 4 4 4 5 5 5 6 5 6 5 5 6 6 5 5 5 3 2 2 3 2 2 0
3 4 5 4 2 1 1 2 3 7 2 4 3 2 3 5 6 6 7 6 5 3 5 2 5 5 4 6 10 9 9 10 13 14 16 17 16 8 5 8 9 8 10 9 6 6 7 8 6 6 5 6 6 5 6 7 6 7 6 6 4 3 4 5 4 5 3 4 4 1 2 4 3 4 4 4 4 5 6 6 6 6 6 6 6 5 5 6 7 7 6 5 4 4 2 3 4
1 5 6 4 4 2 2 1 2 1 1 2 2 3 4 6 3 4 4 5 8 8 2 8 3 5 5 9 8 9 11 10 8 7 7 8 8 8 10 11 12 12 9 6 6 7 7 7 7 7 8 7 6 5 5 6 6 6 7 7 7 7 7 4 2 3 6 3 2 3 2 3 3 5 4 4 5 5 6 6 6 6 6 6 5 6 7 6 6 6 5 6 5 5 4 5 5
2 2 7 6 6 3 3 3 4 2 1 2 5 3 1 3 7 3 4 4 6 7 10 8 7 4 7 6 6 7 11 13 13 14 13 14 14 15 16 17 13 14 8 7 6 7 8 8 9 8 7 7 6 6 6 6 8 6 5 5 4 5 7 6 5 4 3 4 5 3 3 2 3 3 5 5 5 5 6 6 6 6 7 6 6 7 6 5 6 6 6 6 6 6 6 5 4
3 3 7 6 4 3 5 4 3 0 0 5 4 1 0 2 8 3 3 3 5 7 8 8 8 9 1 6 9 10 11 12 12 12 12 13 15 15 15 14 12 7 9 11 10 9 7 7 7 5 7 7 7 7 7 5 6 7 7 6 4 3 2 2 4 4 5 4 5 3 3 3 4 3 4 5 4 5 5 6 6 7 7 6 5 6 6 7 8 8 8 8 8 7 6 5 5
2 6 6 6 7 6 4 3 4 1 2 4 3 0 2 5 6 8 3 0 4 5 8 8 7 7 11 11 8 9 10 10 10 13 14 14 15 17 15 6 5 7 6 6 5 5 6 5 6 6 7 7 7 7 7 6 5 6 6 6 6 4 1 2 4 5 4 4 5 4 3 4 4 5 4 4 5 5 6 6 6 6 6 6 5 6 6 8 7 7 7 7 7 8 6 6 6
4 4 6 5 8 4 3 6 3 4 0 6 6 1 1 3 4 4 2 1 1 6 7 5 6 7 10 9 9 9 8 10 11 12 12 12 7 5 5 9 7 6 6 7 7 7 5 6 7 9 9 7 7 8 8 8 6 7 7 7 7 6 4 5 5 4 4 4 5 4 4 5 4 5 4 3 4 5 5 5 6 5 5 5 6 6 6 6 6 6 6 7 8 7 6 6 6
3 1 2 5 1 6 3 4 5 1 3 5 2 0 1 1 3 4 6 5 4 4 7 10 9 9 8 5 6 7 7 7 9 8 5 4 6 7 7 7 9 8 8 9 8 7 7 7 8 9 7 7 7 8 8 7 7 7 6 8 8 7 8 6 7 8 7 7 6 6 3 4 4 4 4 5 3 4 5 5 4 5 6 6 6 6 5 6 6 6 6 6 6 6 6 6 6
5 4 6 2 2 3 1 2 2 3 5 1 2 2 1 4 5 4 8 6 6 4 3 6 8 10 9 5 5 5 4 3 5 6 7 6 7 10 12 9 8 11 12 12 11 11 9 8 10 12 11 9 9 8 9 8 8 8 8 8 7 7 7 7 7 7 7 7 6 5 5 6 5 5 4 5 4 4 5 5 5 6 5 5 5 6 5 6 6 6 6 6 6 6 6 6 6
5 4 4 3 1 1 2 3 1 4 4 3 1 1 1 4 4 2 4 7 4 4 6 5 6 8 6 6 5 6 4 1 1 2 5 7 5 3 5 9 11 10 9 11 11 11 10 10 10 11 11 8 7 8 9 9 9 9 8 8 8 7 7 7 7 8 7 6 7 8 7 7 7 7 6 6 6 5 3 4 5 5 5 5 5 6 6 5 6 6 6 6 6 4 5 6 5
8 4 8 7 7 5 2 4 4 6 4 2 1 2 4 1 1 4 4 4 4 4 5 5 5 7 4 5 8 9 6 5 2 1 3 4 5 6 5 5 4 4 7 9 10 11 10 10 10 11 9 9 9 10 8 9 9 8 7 8 8 7 8 7 7 6 8 7 6 7 6 6 7 6 7 5 5 5 5 5 5 6 5 5 5 5 5 6 6 6 5 5 5 4 5 5 5
0 3 5 5 6 6 5 4 3 1 1 1 1 3 2 2 2 3 2 4 4 3 3 3 4 6 7 14 12 10 8 7 5 3 1 2 3 4 4 3 4 4 4 4 5 5 9 12 12 12 13 12 10 9 10 10 9 8 7 8 9 8 6 6 5 5 5 7 8 8 8 7 7 7 5 6 5 6 6 5 4 5 5 5 5 6 5 6 6 6 5 5 5 3 5 6 4
2 4 4 4 3 9 6 2 2 3 4 4 1 5 2 6 2 1 4 3 4 5 6 7 8 7 10 11 10 10 9 9 8 7 4 0 2 3 4 5 4 4 3 4 4 4 1 2 3 5 6 6 10 11 10 10 8 7 8 8 7 8 8 9 9 8 8 6 6 7 7 7 6 7 7 5 7 5 6 6 6 5 5 5 5 5 6 6 5 5 5 5 5 3 4 4 3
7 1 6 2 3 5 5 3 2 3 3 5 1 4 1 2 2 2 2 4 4 5 6 4 5 7 11 9 9 9 9 8 9 10 7 5 3 1 3 4 5 6 5 5 4 3 3 3 4 4 4 7 7 6 7 8 9 9 8 9 9 10 10 10 8 9 7 7 5 5 3 5 6 6 7 6 6 7 6 6 6 5 5 5 6 5 5 6 5 5 5 5 4 4 4 3 3
3 2 4 2 1 1 3 4 0 1 1 2 1 1 3 4 3 1 1 1 4 5 5 6 8 9 7 7 8 8 8 9 10 10 10 10 9 6 1 3 4 5 6 7 6 6 5 5 4 4 6 4 1 2 4 5 6 7 7 8 9 9 8 8 7 7 7 8 8 7 7 6 4 4 5 6 6 6 6 5 6 5 5 5 5 6 5 5 5 5 4 4 4 5 5 5 4
2 2 3 1 3 2 3 5 3 4 2 2 4 1 3 4 3 5 3 1 2 4 6 6 6 6 5 5 5 6 7 8 8 9 9 9 9 10 9 5 1 1 4 5 6 7 8 8 8 7 6 5 4 4 6 5 2 1 4 3 4 4 6 7 7 8 8 8 8 8 7 6 7 5 5 6 6 6 6 6 5 6 6 5 6 5 5 6 6 5 4 4 3 4 5 4 4
1 3 2 1 2 1 4 1 1 2 4 4 2 2 3 4 4 4 3 1 0 1 4 4 6 7 7 6 6 6 6 7 7 7 7 7 8 10 10 9 8 5 2 1 3 7 7 5 6 8 10 9 10 9 8 7 5 6 4 5 5 5 6 5 5 7 8 8 7 7 8 7 6 6 6 7 7 7 6 6 6 6 6 6 6 6 5 6 5 5 4 4 4 3 3 2 2
1 3 4 6 6 2 1 5 2 2 2 3 4 6 5 7 2 3 2 1 0 1 2 3 4 5 6 6 6 5 5 5 5 5 5 5 6 7 8 9 9 11 10 8 5 3 0 4 6 7 7 9 9 9 10 8 9 11 13 11 7 7 6 5 6 7 8 7 7 7 7 7 8 7 8 8 8 7 6 7 6 6 6 6 6 6 5 6 6 5 4 3 3 2 2 2 2
Wind_Direction
246 302 310 278 44 167 87 357 167 309 71 258 320 310 264 255 247 339 285 328 182 316 338 35 60 87 150 196 142 124 219 149 230 146 212 243 43 120 115 109 112 108 115 123 120 136 159 156 164 158 147 144 144 142 139 136 133 133 131 126 124 123 118 113 109 110 112 110 112 115 118 119 119 118 119 119 119 120 120 121 122 124 124 123 122 123 122 122 123 125 126 128 127 127 128 124 124
319 306 318 198 196 66 227 127 97 340 39 27 247 114 256 280 19 219 238 214 213 137 124 99 84 83 71 109 132 135 37 25 222 204 355 38 102 90 100 111 115 116 118 123 130 135 148 160 163 164 155 150 147 147 146 140 138 136 135 131 129 128 123 119 119 120 121 122 123 121 119 121 123 123 123 122 121 125 124 125 124 123 123 125 123 123 122 121 123 126 127 127 127 127 125 126 125
327 13 254 47 28 79 96 33 264 93 128 246 274 210 318 344 254 260 222 185 159 151 134 112 108 73 40 87 45 41 212 346 96 94 91 133 116 118 102 109 109 111 119 120 123 136 147 160 160 172 160 155 153 149 151 146 142 140 139 136 136 133 128 128 128 128 127 127 126 124 123 123 126 130 126 119 102 94 118 126 127 125 127 128 127 123 121 120 122 125 127 127 126 125 125 127 123
79 56 155 78 223 28 73 28 82 134 140 207 305 286 219 237 309 274 219 163 147 270 295 35 52 275 117 77 133 80 52 108 11 121 127 173 98 122 118 116 110 101 96 107 125 128 141 153 163 176 168 161 155 155 152 147 144 141 138 139 139 134 131 131 128 127 129 130 127 122 122 120 123 122 120 114 106 84 55 113 117 129 127 125 124 121 121 122 124 126 127 128 127 125 125 123 119
60 300 105 99 111 317 111 174 145 109 181 205 143 276 274 161 86 79 88 125 226 350 27 88 78 349 90 116 109 116 221 111 142 43 121 73 117 122 117 115 112 113 110 108 112 120 141 150 155 188 187 159 163 158 156 149 145 142 139 140 141 134 130 129 129 130 134 135 133 130 126 122 124 126 130 125 119 109 111 102 99 107 107 124 128 116 120 125 126 126 128 129 127 124 122 120 115
59 49 355 100 268 183 55 72 183 188 222 155 123 150 280 262 98 112 62 309 335 54 61 56 149 172 22 1 168 111 144 140 161 87 143 137 130 123 117 114 115 116 112 101 108 112 103 127 123 178 194 172 163 170 158 154 146 141 139 138 139 134 131 131 134 135 135 137 135 132 130 131 126 131 132 135 132 138 141 136 132 118 107 121 124 118 121 126 128 130 132 129 125 123 124 122 115
239 48 356 28 21 56 179 156 208 185 273 171 213 211 167 13 176 82 338 11 342 47 30 100 118 108 74 324 45 45 322 143 158 144 134 130 124 119 116 111 110 111 112 112 108 92 110 116 91 126 199 200 178 168 154 146 140 147 138 135 138 137 136 136 137 138 138 138 136 136 133 133 138 135 135 142 144 145 144 126 122 117 116 130 129 120 120 126 130 132 131 126 119 118 120 114 106
60 135 289 106 243 35 281 206 237 158 271 177 219 178 237 288 255 91 263 81 315 42 351 80 331 90 162 1 136 299 15 17 103 96 110 123 121 118 117 115 107 109 108 107 106 120 112 94 107 145 172 187 172 164 141 152 137 100 138 141 142 141 141 141 139 139 141 143 142 141 139 138 141 135 127 129 126 117 108 121 122 121 128 140 136 121 120 125 124 123 126 124 119 118 117 109 107
339 87 317 81 164 41 40 244 256 233 286 290 254 193 230 224 212 163 220 237 121 64 137 200 317 86 222 35 28 314 36 69 92 112 117 120 117 116 107 104 110 111 110 109 97 90 110 114 128 142 154 165 157 156 149 139 156 160 183 146 144 141 144 146 143 140 140 144 147 147 146 143 140 139 133 123 111 121 133 131 126 120 119 131 134 123 119 120 124 123 126 122 118 113 113 112 107
27 89 260 145 121 236 359 296 97 231 215 244 269 252 209 230 234 218 210 260 191 123 181 31 35 117 123 101 94 346 122 111 114 114 114 116 115 104 97 101 108 113 107 106 107 111 114 114 105 117 133 154 156 151 143 149 168 160 158 157 153 142 152 151 145 142 144 147 149 151 149 144 140 135 137 132 131 140 150 138 131 122 123 141 141 132 122 116 117 120 121 122 120 120 118 116 111
42 10 133 78 26 235 242 272 265 312 252 296 296 259 235 214 196 207 206 213 178 144 201 87 40 118 102 72 334 276 138 133 132 139 128 116 106 103 101 100 100 104 108 111 99 87 88 94 111 99 99 110 106 116 127 141 148 146 155 171 160 161 155 148 149 146 147 146 148 150 145 141 139 140 141 140 144 148 144 136 131 132 138 143 150 141 127 118 114 114 118 119 120 120 118 115 111
39 54 16 107 187 166 239 190 283 276 284 296 271 287 217 177 168 198 197 158 175 133 162 148 175 142 80 131 237 148 144 146 137 138 131 112 103 106 107 103 103 101 103 100 91 79 72 67 65 113 111 105 108 111 117 131 140 139 157 163 164 162 153 148 150 150 148 146 144 142 140 138 139 140 136 140 140 141 142 136 133 135 137 143 145 145 133 123 120 119 114 117 119 119 120 118 114
121 107 86 96 227 133 190 203 255 274 324 273 218 269 248 128 174 199 188 178 164 132 190 187 156 123 117 192 192 144 153 150 146 140 132 128 126 110 102 101 103 105 105 97 89 82 73 69 61 77 115 114 108 110 116 117 133 141 149 159 160 158 157 155 154 156 150 141 136 137 136 132 131 127 127 139 131 137 138 132 133 135 137 138 143 144 150 132 127 126 123 119 119 121 121 120 119
117 180 126 212 69 146 154 242 278 340 294 246 252 270 318 256 239 188 138 135 179 166 201 147 150 128 68 114 159 161 163 156 151 140 137 133 128 123 113 107 107 106 109 100 95 90 82 66 56 45 50 57 79 106 115 123 134 143 153 156 158 161 159 158 155 149 140 140 134 134 131 133 133 135 139 135 133 134 127 134 135 134 137 139 143 148 161 149 134 133 129 125 122 123 127 125 121
313 146 83 124 106 42 247 142 211 143 263 240 260 290 311 252 193 163 158 153 190 205 112 107 171 124 205 170 203 186 164 158 153 136 127 130 135 126 126 123 116 115 108 96 90 95 97 87 81 72 75 61 72 80 87 122 132 140 153 151 158 164 161 157 144 142 147 146 135 136 149 152 150 144 139 137 136 140 140 136 138 139 137 141 143 151 162 170 142 141 133 130 129 131 134 131 125
147 80 83 108 252 161 272 204 231 98 262 221 278 323 214 318 218 156 233 147 144 137 129 170 99 211 183 177 184 163 149 141 139 127 125 128 130 125 129 129 124 117 110 107 93 95 113 109 93 84 71 84 60 56 85 109 138 144 151 150 152 158 152 149 144 148 159 148 140 152 153 148 148 148 148 145 143 143 143 140 145 143 145 147 150 153 163 176 154 148 135 131 134 138 139 138 127
73 81 13 31 263 152 260 190 158 249 261 281 298 2 75 336 322 45 102 118 125 154 59 23 254 328 156 191 142 129 133 128 123 123 124 130 132 137 130 126 126 114 116 111 125 120 112 120 108 98 104 102 94 77 63 86 150 142 150 158 145 148 150 177 160 147 157 146 141 150 130 122 107 138 145 147 149 146 153 154 157 153 153 153 155 156 161 170 184 153 138 135 140 139 137 130 129
65 100 113 267 201 138 213 198 192 222 270 298 337 336 35 53 357 131 77 50 86 76 77 4 29 41 104 118 114 119 120 128 128 135 138 143 145 141 143 141 139 143 129 122 125 140 137 135 131 114 93 87 74 63 68 67 77 83 85 106 136 150 149 146 116 39 110 35 152 136 125 121 138 135 104 157 161 160 164 165 166 162 162 162 163 163 163 170 185 177 143 140 138 136 100 59 17
111 117 99 220 191 238 167 208 233 328 275 286 283 306 196 222 118 272 98 128 116 85 23 61 65 67 87 104 118 122 130 129 135 139 136 137 137 137 140 129 141 134 141 130 149 178 179 153 150 139 109 88 76 56 55 77 74 78 83 74 118 144 148 120 103 95 35 95 42 99 102 111 134 130 140 194 153 175 172 173 171 168 171 167 168 166 165 169 178 187 154 134 123 101 95 91 83
228 121 235 250 213 244 215 225 254 203 275 295 305 316 127 158 81 293 130 146 107 136 130 43 117 134 130 129 129 132 135 136 143 145 141 144 137 137 119 135 136 143 137 150 158 186 191 182 172 146 125 105 93 85 60 61 69 82 95 92 104 101 101 109 103 83 33 51 61 58 73 68 79 133 179 188 179 168 186 175 174 173 178 170 169 162 163 172 175 175 177 121 98 83 90 104 105
269 101 204 232 221 266 267 201 247 263 239 272 289 291 85 1 199 107 143 103 215 249 212 164 170 156 148 143 141 141 145 149 153 158 151 141 126 116 136 141 151 144 145 126 142 191 205 209 179 145 116 114 98 92 97 80 64 69 88 83 96 111 115 118 100 99 147 67 54 51 49 85 59 152 65 71 126 165 139 352 180 160 143 161 161 111 120 160 137 109 84 91 98 101 79 80 89
108 210 203 215 136 246 259 229 234 250 265 257 321 51 179 323 58 141 154 143 199 202 208 243 157 151 148 149 154 149 155 157 161 159 155 153 155 153 142 117 60 86 142 152 172 185 214 216 195 164 109 114 111 115 126 153 119 122 129 119 77 85 91 88 131 136 145 99 87 61 59 36 111 105 89 98 146 79 99 102 139 126 127 142 129 128 113 112 138 140 147 124 120 114 108 100 79
231 309 243 229 217 239 269 152 193 161 341 296 300 253 89 82 135 210 214 181 211 322 111 154 166 161 160 149 148 156 159 165 167 166 158 150 147 155 158 163 156 160 166 171 165 192 204 193 170 109 89 84 101 117 107 91 101 111 79 141 115 73 99 118 91 137 146 148 130 158 146 186 128 161 129 96 82 68 101 45 181 162 153 151 145 141 146 147 142 182 159 161 138 130 118 114 112
147 248 292 297 198 227 258 270 253 284 277 274 223 314 185 126 143 199 234 245 276 305 112 124 120 127 137 149 164 161 163 165 168 160 160 158 160 164 163 160 163 138 133 160 170 179 178 191 164 123 106 93 79 88 93 96 105 123 173 146 109 142 126 114 126 123 141 196 171 160 183 149 147 167 140 143 154 166 168 201 212 169 165 169 153 153 158 153 166 161 162 156 156 112 117 121 130
186 263 245 266 189 237 260 260 272 249 253 263 333 306 221 183 176 125 242 293 320 103 108 117 129 134 140 143 150 152 155 158 152 140 111 107 121 114 102 118 135 141 146 171 174 159 193 177 140 121 116 102 102 106 98 111 116 108 84 93 125 122 110 128 126 137 148 177 206 181 175 169 187 173 145 167 176 189 206 193 222 193 195 179 164 157 164 161 165 170 167 184 149 118 122 123 136
204 227 318 277 269 274 269 292 270 230 251 186 119 245 309 238 255 176 229 301 147 120 111 125 134 144 156 161 157 157 162 161 144 139 151 127 128 120 137 154 156 157 170 164 158 180 181 160 155 155 137 125 123 107 124 120 124 113 102 109 194 109 100 115 135 138 145 158 178 186 181 191 195 173 175 174 169 183 195 225 223 207 200 188 173 166 169 162 168 171 161 179 165 153 154 172 150
164 219 225 254 271 304 295 228 304 214 215 148 193 233 132 332 101 250 323 244 127 113 124 136 146 157 159 157 154 163 158 167 162 142 114 127 146 155 168 162 163 164 152 158 167 178 175 150 167 147 134 134 124 122 131 124 117 101 104 111 61 96 107 102 24 142 146 152 165 172 182 182 187 182 188 184 196 172 200 207 210 246 183 208 197 174 156 170 167 183 184 187 183 179 193 172 169
234 246 317 296 305 239 256 320 293 130 289 158 176 206 274 315 73 221 250 174 140 125 134 145 150 156 156 155 164 161 164 164 156 149 156 161 176 172 168 166 164 159 158 167 172 167 155 163 151 148 135 134 128 128 127 125 119 135 126 96 92 115 135 133 110 264 125 133 151 156 155 156 173 202 192 176 184 182 189 206 170 254 220 219 195 166 160 158 182 197 192 190 190 180 195 177 174
273 85 306 303 349 8 14 316 341 334 272 105 164 86 348 335 192 320 266 144 129 132 141 149 149 148 154 165 162 168 177 173 168 177 179 178 167 171 167 177 158 158 178 159 163 158 163 159 143 149 139 135 134 140 137 129 116 112 125 123 119 104 89 129 152 135 119 125 129 142 145 150 96 297 234 201 174 160 200 193 97 189 222 215 166 138 149 148 162 188 215 152 119 101 71 309 44
7 46 44 329 359 8 349 313 358 80 258 85 9 261 270 264 261 282 63 119 104 107 130 145 147 150 163 174 178 169 165 171 189 190 177 178 178 178 166 175 169 156 160 162 147 162 164 152 145 143 142 139 139 134 127 119 123 120 100 94 107 86 86 83 86 102 126 119 130 153 145 126 163 225 239 224 182 150 195 210 146 238 292 33 25 149 167 171 156 168 186 144 161 140 195 295 332
338 280 65 60 11 287 300 31 301 18 2 34 73 227 285 270 285 266 254 143 140 149 152 151 150 159 172 184 183 181 194 198 187 181 186 185 180 179 166 161 174 160 145 155 166 165 157 161 149 133 137 133 125 118 112 114 100 98 103 106 110 115 100 93 82 80 92 107 102 316 123 113 142 186 203 215 212 207 179 167 219 213 43 290 193 215 248 185 154 140 141 162 143 126 142 271 261
12 51 302 327 87 283 306 10 21 305 322 57 75 6 245 269 264 239 188 142 155 149 160 162 162 171 182 186 185 185 194 191 192 206 195 191 184 177 173 172 173 171 161 162 159 155 162 159 144 136 140 134 121 112 94 89 94 94 109 113 100 94 103 102 96 82 77 74 91 78 45 122 123 147 166 192 217 204 114 122 172 175 192 213 191 210 212 203 172 177 170 146 163 221 204 225 201
356 64 252 329 17 312 3 5 1 322 260 333 156 232 321 331 302 297 320 158 159 155 170 173 169 177 182 187 189 181 165 192 199 209 201 191 198 185 179 173 179 175 163 160 159 163 156 160 145 139 144 134 116 99 97 89 91 93 87 92 97 93 95 96 78 65 54 52 47 60 56 74 85 102 138 175 163 178 80 57 242 67 155 182 283 210 199 222 201 213 199 184 170 244 220 260 255
323 16 106 231 82 353 44 309 30 344 104 271 20 201 248 253 321 330 1 96 141 165 185 182 179 180 188 184 183 182 188 184 200 204 202 190 193 191 188 180 171 172 172 161 164 163 162 159 153 141 131 124 122 120 111 106 91 83 75 75 80 80 81 76 56 58 60 57 54 48 52 63 67 60 48 62 3 56 114 218 71 68 355 68 212 256 223 195 181 191 227 129 179 211 186 201 279
228 303 28 347 316 202 267 17 296 34 359 215 319 280 269 291 319 327 310 336 172 200 192 187 182 180 188 193 190 194 193 200 210 205 186 184 188 190 180 171 170 168 167 163 152 137 133 143 141 133 126 121 115 112 105 91 88 77 68 76 74 72 71 62 60 67 54 61 53 46 53 59 65 58 57 68 125 84 114 127 126 156 214 223 220 268 333 152 141 184 217 179 201 214 183 148 152
184 167 165 144 74 298 323 249 273 32 12 59 302 234 286 322 307 302 324 22 190 228 141 122 168 184 184 202 216 203 206 217 217 175 165 182 190 179 178 164 165 160 160 159 147 140 145 144 135 121 126 126 119 112 110 96 78 81 92 79 67 55 57 68 51 58 48 58 45 47 47 50 50 63 60 63 69 76 75 84 113 108 21 29 354 17 271 281 270 208 214 212 168 226 172 149 137
101 95 101 180 171 291 281 274 264 359 88 265 265 255 268 277 242 239 245 325 309 272 222 195 192 191 201 199 204 209 215 221 182 176 169 185 192 177 158 149 154 149 165 165 154 161 167 162 150 145 145 140 134 133 131 133 115 81 47 68 111 88 98 78 59 39 54 53 52 45 45 41 48 53 55 67 71 68 67 68 62 56 126 111 352 348 263 191 204 231 174 140 149 122 111 103 98
133 124 117 175 194 290 220 259 8 329 134 281 332 331 288 258 281 260 149 88 238 231 233 222 201 201 201 205 208 210 216 264 153 150 175 180 191 177 161 157 158 162 192 175 172 175 172 165 160 151 148 149 150 151 153 148 152 165 154 172 143 124 98 95 82 56 71 61 52 43 34 38 54 54 57 58 59 67 65 58 51 33 32 65 58 4 2 45 159 234 116 344 56 73 69 79 90
47 176 165 27 285 240 287 277 336 329 99 265 5 360 285 284 286 299 255 199 216 218 189 198 196 200 197 199 204 207 200 205 186 192 178 192 189 188 182 179 188 192 177 181 182 166 167 174 172 156 158 153 158 153 147 153 133 136 131 174 142 107 61 141 125 84 77 76 51 39 33 26 55 53 55 64 70 54 66 69 51 44 34 44 78 60 52 48 32 25 122 107 48 49 52 116 144
111 94 53 242 247 36 302 296 345 347 67 305 46 340 292 306 292 272 274 230 198 242 241 238 197 190 197 200 194 193 204 195 196 192 194 187 189 192 190 190 185 181 177 187 189 178 173 178 173 166 161 154 153 163 143 103 106 99 79 110 75 106 133 114 78 57 63 58 38 29 39 27 34 52 41 58 67 53 55 62 61 54 45 29 49 64 49 38 13 50 40 40 86 82 52 54 171
332 142 154 110 93 235 168 258 318 305 17 57 29 7 322 340 350 331 319 316 326 181 279 295 289 250 236 255 194 197 194 194 199 195 182 181 190 202 197 181 176 190 190 192 186 181 171 178 184 175 162 158 156 155 128 123 104 80 87 73 82 77 63 73 86 46 49 96 82 54 16 16 33 41 34 43 63 68 56 53 60 56 57 48 55 61 55 45 48 33 23 53 57 89 77 79 159
322 239 185 200 181 177 264 332 38 22 340 355 56 330 308 305 299 251 286 349 342 326 356 234 226 243 239 214 210 208 216 202 194 192 190 191 196 185 171 185 192 198 198 197 179 171 171 178 174 178 160 147 154 153 145 138 139 136 133 128 133 114 131 138 149 158 139 130 147 187 24 34 44 53 40 50 64 72 63 58 57 56 52 48 51 61 50 45 39 44 25 31 38 37 71 76 52
96 271 191 162 147 119 117 67 76 3 224 305 26 193 265 325 327 301 335 343 313 316 278 275 203 232 223 229 218 202 207 211 219 209 193 187 187 177 193 195 199 200 200 165 171 180 183 173 175 177 168 159 153 153 159 141 136 153 169 172 172 166 165 221 177 169 146 170 132 102 60 28 54 82 61 63 68 68 73 63 64 62 59 54 55 59 51 43 34 35 37 52 36 29 37 68 48
237 234 125 119 106 139 184 134 138 202 251 302 37 100 184 309 293 286 322 350 311 311 304 303 295 198 223 240 245 229 217 209 202 201 194 192 185 187 191 202 195 201 169 166 172 185 183 175 174 179 172 161 156 155 168 164 156 169 172 179 178 169 170 185 168 161 135 130 116 109 87 64 54 69 87 73 73 74 75 69 71 71 66 55 57 57 59 47 47 34 38 41 45 39 37 50 49
219 181 135 151 155 182 131 117 135 61 337 278 329 336 306 262 267 308 3 355 318 311 293 290 302 318 259 228 235 232 229 221 208 202 196 185 188 197 202 200 197 157 168 180 182 186 176 178 175 168 169 161 159 161 168 184 168 170 172 170 187 223 204 133 124 122 127 123 113 93 88 68 69 56 77 88 74 79 79 85 78 75 71 63 65 65 57 53 52 45 36 35 34 37 33 29 45
272 138 83 83 73 66 96 101 105 354 66 272 270 250 215 288 278 323 328 321 305 275 291 295 305 302 307 301 275 238 225 221 214 210 200 194 195 199 198 178 143 176 154 157 169 172 181 167 165 171 180 175 163 165 174 185 178 155 159 176 180 197 133 85 109 119 124 128 128 123 102 91 92 79 69 81 89 85 90 87 84 82 83 77 69 70 64 58 53 54 49 47 42 45 34 43 50
116 93 75 30 41 36 27 64 89 72 17 258 238 271 144 272 268 230 38 30 242 307 305 311 314 313 300 283 265 264 236 212 208 207 203 204 199 171 144 171 169 138 156 159 171 180 165 167 177 185 191 174 166 171 173 187 181 165 173 176 179 178 176 151 125 113 115 116 137 148 135 120 97 105 98 71 92 101 94 93 94 90 86 86 86 77 71 72 64 65 59 56 51 50 37 44 46
112 55 114 61 358 10 40 346 38 91 274 258 293 115 86 203 301 337 246 296 290 255 285 305 312 306 292 271 287 274 249 219 205 197 185 157 155 162 157 161 164 163 152 167 175 173 179 181 181 187 192 183 177 173 176 185 180 180 177 174 177 181 171 173 167 167 173 163 160 158 162 119 108 105 105 109 99 98 103 95 94 92 88 88 81 80 79 77 76 73 66 63 57 50 47 48 46
75 72 49 123 261 43 309 5 264 204 201 289 33 132 27 244 219 267 315 308 333 341 284 286 301 307 299 327 330 313 278 234 208 179 151 171 174 173 180 175 154 172 180 174 174 180 184 184 184 188 195 190 185 175 179 181 183 188 180 179 182 175 185 181 176 174 177 167 160 147 150 158 143 127 145 131 156 150 131 127 125 114 110 106 110 95 89 84 79 73 69 66 60 52 49 54 49
113 149 134 88 80 47 246 285 218 309 296 274 351 313 246 248 296 259 304 310 313 318 315 314 303 294 307 11 7 15 355 322 209 175 166 162 167 206 206 183 182 178 176 175 175 179 187 191 188 194 198 190 184 178 181 181 194 192 184 176 177 175 189 186 185 179 184 173 164 167 170 172 168 171 166 172 171 165 144 128 120 114 113 118 110 106 101 100 92 86 81 74 71 65 61 61 54
203 136 148 188 147 160 232 195 206 218 207 306 287 77 233 102 227 336 307 287 320 333 326 311 298 291 313 38 38 29 23 11 3 147 163 163 157 159 177 194 205 199 185 178 178 187 184 192 189 194 194 196 188 188 181 188 193 194 189 179 174 181 186 186 192 190 175 170 177 169 177 172 168 176 172 178 159 146 135 125 122 116 118 110 105 97 91 80 74 72 72 70 68 75 70 62 53
126 158 86 91 230 145 216 203 157 208 169 30 218 210 194 135 297 292 326 332 342 316 319 326 343 355 354 41 29 24 25 24 20 38 68 105 144 135 135 159 180 172 185 201 205 194 194 199 196 195 196 190 189 188 192 190 193 189 185 182 185 183 189 184 181 190 191 182 175 177 178 183 181 159 165 154 169 149 145 134 121 124 131 123 110 112 105 93 91 90 74 67 54 31 55 54 56
242 107 181 211 156 106 84 82 24 95 49 263 161 324 316 296 30 349 348 351 353 359 7 18 10 0 24 31 20 18 19 29 31 20 353 343 126 132 148 154 158 154 167 188 181 181 220 333 291 243 214 196 197 197 192 192 188 182 196 192 183 183 186 185 186 190 187 190 180 183 176 189 167 158 161 165 158 158 148 141 134 133 122 113 105 104 104 101 98 88 87 82 70 38 62 44 26
94 177 233 147 117 121 130 202 349 56 174 254 44 207 240 84 219 310 0 19 352 1 358 356 13 15 37 16 15 12 10 10 26 32 29 16 350 200 156 156 161 162 158 157 170 163 164 170 172 208 236 232 222 207 198 195 191 195 196 197 195 192 192 194 186 183 179 175 184 179 158 149 186 175 160 162 153 152 152 141 134 128 122 110 113 105 93 92 83 63 60 64 62 49 37 33 36
151 199 184 114 266 223 323 91 226 176 254 269 318 283 272 183 229 134 172 50 357 345 342 23 20 21 25 24 18 12 11 17 24 26 21 19 25 17 348 183 171 160 162 163 166 167 163 160 166 180 211 212 240 238 249 233 207 198 202 205 201 201 203 197 191 177 171 181 182 179 178 183 159 155 147 148 146 147 144 139 133 132 124 118 104 101 104 92 91 83 61 60 38 40 40 16 357
30 52 32 359 101 160 126 193 173 126 241 70 291 55 234 220 224 174 131 227 295 330 2 8 355 0 4 17 22 23 23 21 18 27 17 17 28 29 26 14 329 215 174 169 166 169 174 173 177 180 174 188 187 193 205 224 228 329 296 296 267 236 215 201 191 176 181 192 188 177 171 161 178 167 162 154 151 151 150 143 144 140 140 131 116 115 118 113 104 102 105 78 70 71 51 17 345
331 36 338 28 36 207 103 30 119 178 172 175 186 315 284 271 215 162 165 202 233 48 7 348 347 348 352 2 11 15 20 21 17 15 16 10 16 35 29 27 35 35 38 142 167 177 182 179 180 179 178 181 196 199 186 191 159 184 222 241 232 236 228 219 202 194 191 195 185 179 177 172 148 168 155 156 156 155 152 151 152 157 150 144 131 134 142 123 105 99 100 104 98 95 68 38 4
186 167 207 162 130 154 247 264 33 82 113 211 131 235 270 268 180 220 191 209 269 330 40 7 350 356 352 352 3 4 9 13 17 11 11 17 16 27 37 32 34 44 35 33 17 9 298 198 188 177 184 191 193 189 186 177 184 192 201 216 208 196 213 215 212 205 201 192 184 180 169 151 167 168 162 159 155 151 149 150 149 146 140 134 137 138 147 113 105 97 86 103 94 85 86 10 49